Theta_e
318 319 319 319 319 320 321 322 323 323 324 324 326 326 326 328 328 327 327 328 327 324 323 323 320 317 317 317 318 315 318 317 317 315 317 318 318 320 323 323 323 324 325 325 326 330 326 325 325 326 326 326 326 326 327 326 325 325 324 325 326 326 325 325 324 323 321 321 321 319 320 323 326 326 325 326 325 325 327 327 327 327 328 329 331
318 317 318 318 318 318 319 320 321 321 322 323 325 326 326 326 327 325 324 326 326 325 324 321 316 320 318 316 315 315 317 316 315 315 317 317 317 317 317 317 319 321 325 323 324 324 323 324 325 325 326 326 327 328 326 327 325 325 325 324 326 327 325 325 324 321 317 316 317 317 316 319 322 324 324 325 326 326 327 328 327 326 328 328 329
317 317 317 318 318 318 318 317 317 319 320 321 323 325 325 325 326 324 324 325 323 323 322 319 315 316 316 314 317 312 312 315 315 317 317 314 313 314 315 315 316 318 322 324 322 322 323 323 324 326 326 327 326 326 326 326 324 324 324 324 324 326 325 326 323 320 317 316 317 316 311 313 317 318 322 325 326 326 325 326 329 329 327 330 329
317 316 317 318 318 318 317 316 317 317 319 319 322 323 324 325 324 323 323 322 320 320 319 316 317 316 316 315 313 314 315 317 314 314 314 313 314 314 315 313 315 316 319 323 322 321 321 322 323 324 325 326 326 325 325 325 325 324 324 324 324 322 323 323 325 321 318 317 315 314 312 311 309 311 316 324 325 326 326 326 327 325 327 331 329
317 316 317 317 317 318 319 318 317 319 319 321 322 323 324 323 323 322 321 319 317 319 317 318 317 315 315 315 316 315 314 313 313 312 313 317 314 313 313 314 315 315 316 318 321 318 319 321 323 323 324 323 323 322 322 322 324 324 325 324 323 323 321 324 325 324 322 323 318 314 311 309 309 312 316 320 321 326 326 328 331 329 328 328 328
317 317 316 317 317 317 318 318 318 319 320 321 323 324 323 322 322 320 318 317 316 316 317 318 317 315 314 314 312 310 310 310 310 310 310 310 311 312 312 313 313 313 313 315 317 316 314 316 318 319 319 319 319 318 317 319 322 323 324 324 322 321 323 323 322 324 323 322 319 318 317 313 310 314 314 312 318 319 320 324 324 325 327 328 328
313 314 316 316 316 316 317 318 319 320 321 321 322 322 322 322 320 319 318 316 316 316 317 317 314 315 315 314 313 312 310 308 306 307 310 310 311 311 310 311 311 312 312 313 314 315 313 313 314 314 314 315 317 314 315 317 319 320 321 320 321 321 323 321 322 321 322 322 321 321 320 318 318 315 312 311 313 318 319 318 321 323 324 326 326
314 314 315 316 317 317 318 319 320 321 320 320 320 321 320 320 319 318 318 318 316 317 316 316 314 313 312 312 313 311 311 310 308 309 310 312 311 310 310 309 310 311 311 311 312 314 312 311 311 312 312 314 315 311 311 312 313 314 316 318 318 319 321 321 319 321 319 318 321 320 319 318 317 317 315 315 312 313 316 318 319 318 322 320 322
314 314 315 316 317 318 319 319 320 320 321 320 320 320 320 320 320 320 319 318 316 316 315 314 315 313 313 312 311 309 309 311 312 313 311 311 310 308 309 308 308 309 310 311 311 313 316 311 310 311 311 313 315 311 310 310 309 310 312 314 316 316 319 319 318 315 315 318 319 319 318 316 316 316 316 316 311 310 310 310 311 316 316 314 317
313 315 315 316 317 318 318 319 320 320 320 320 321 322 322 321 320 320 318 317 315 315 315 313 313 314 312 311 311 310 312 310 310 309 309 308 309 307 307 307 308 308 308 309 310 310 310 311 309 310 310 313 314 309 309 310 309 310 309 310 310 310 310 313 314 311 316 318 318 316 315 312 311 312 311 313 312 311 310 307 309 310 308 311 316
313 314 315 316 316 316 318 318 316 318 320 321 322 323 322 320 319 319 317 315 315 313 313 313 312 312 312 311 311 311 310 311 310 308 307 308 308 306 306 306 306 307 309 309 309 310 311 314 310 311 314 316 312 309 309 309 308 309 308 309 308 308 308 308 310 312 313 314 312 312 312 309 310 310 308 310 313 311 309 308 307 307 307 306 309
312 314 314 315 314 316 316 316 318 319 320 321 322 322 321 321 319 318 316 315 314 313 313 313 312 312 312 311 311 312 312 312 311 310 308 308 307 306 305 306 306 306 306 308 309 310 311 310 312 310 311 309 309 309 309 309 309 308 308 308 307 307 308 308 306 306 306 306 306 306 306 307 307 307 308 307 309 310 309 306 307 308 305 306 307
313 313 314 314 315 315 314 315 317 318 319 321 321 321 321 322 321 320 317 315 314 314 313 313 312 312 312 312 312 313 313 313 312 310 308 308 307 306 305 306 305 307 306 307 308 307 309 308 309 310 310 311 309 308 308 308 308 308 308 307 307 306 306 306 306 305 306 307 306 305 306 306 306 305 305 305 304 305 305 304 304 305 305 305 306
311 312 312 311 313 314 314 315 316 316 317 319 321 321 321 322 320 318 316 316 315 314 313 312 312 312 313 313 313 314 313 313 312 311 309 308 307 307 306 307 306 306 306 307 307 308 308 309 309 308 309 309 309 308 308 309 308 308 308 307 307 306 306 306 305 305 305 304 306 306 306 306 306 306 306 306 305 305 304 303 303 302 304 304 305
308 308 307 307 310 313 314 315 315 315 315 317 319 320 320 318 318 318 318 316 316 314 314 313 312 313 314 314 314 314 314 314 313 313 311 309 307 307 306 305 307 306 306 307 309 307 308 307 309 308 308 309 309 310 310 309 310 309 308 307 307 306 306 306 305 306 305 305 305 306 306 306 306 306 306 306 306 306 306 303 301 302 302 302 303
308 308 308 309 308 311 314 314 314 314 314 316 317 317 316 317 319 319 317 315 316 315 314 313 312 313 314 314 314 315 315 314 313 314 312 311 309 308 306 305 306 307 306 308 308 308 307 307 308 306 307 307 309 309 308 308 308 308 307 308 308 309 306 305 304 304 303 303 303 304 305 304 305 305 306 306 306 306 305 303 301 300 301 299 300
308 310 311 311 310 309 312 314 314 314 313 314 315 316 316 317 319 319 317 316 316 316 315 314 313 313 314 314 313 314 314 313 313 313 313 311 310 309 307 306 306 306 308 309 307 307 307 307 307 307 306 307 308 309 308 307 307 308 307 307 307 307 308 306 305 305 303 303 304 304 305 305 305 306 306 305 305 305 305 305 305 304 300 300 298
310 311 312 312 311 311 310 313 314 314 314 314 314 314 316 318 318 318 316 316 317 317 316 314 313 313 313 313 314 315 314 314 314 314 313 312 311 311 309 308 308 309 310 311 308 308 308 315 307 308 306 307 308 308 308 307 307 306 306 307 307 308 308 306 305 305 305 306 306 304 305 305 304 305 306 306 305 305 305 305 304 303 304 301 298
308 310 309 311 311 311 311 312 313 312 311 311 313 314 315 316 317 317 317 317 317 317 317 315 315 315 314 314 314 314 315 315 315 315 314 313 312 311 311 310 309 309 311 310 308 309 309 309 307 308 307 308 307 307 308 307 306 306 308 307 306 307 307 306 304 306 306 307 306 304 303 304 304 304 304 304 305 305 304 304 304 304 303 304 301
308 308 308 309 310 312 312 312 312 311 310 310 311 313 314 316 315 314 314 314 314 316 316 314 314 315 315 314 314 315 315 315 315 315 314 313 313 313 312 311 310 311 310 309 309 309 309 309 308 308 308 307 307 307 307 307 306 306 307 307 307 306 307 307 307 306 306 305 305 304 304 304 303 304 304 303 304 304 305 304 304 304 302 302 303
306 306 307 307 307 309 310 311 312 311 311 311 310 310 312 313 312 313 313 313 313 314 314 313 314 314 315 314 313 313 313 314 315 315 315 314 314 314 313 313 311 310 310 310 310 310 310 310 309 310 310 309 309 308 307 307 307 307 307 307 306 306 307 306 307 307 306 305 305 304 303 304 303 304 303 303 302 302 303 303 303 303 302 303 303
303 304 304 305 306 307 309 310 311 311 311 311 309 309 309 310 311 312 312 313 312 312 312 312 313 313 314 313 313 312 313 314 314 314 314 312 313 313 313 312 311 311 311 311 311 311 312 312 311 311 310 309 309 308 307 307 308 307 307 307 306 305 306 305 306 306 306 305 304 304 303 304 302 303 303 302 301 301 301 301 301 302 301 301 302
302 302 302 304 304 305 307 307 306 307 307 308 309 309 308 308 310 310 312 310 310 311 311 311 311 312 312 312 312 312 313 314 314 314 313 313 313 313 314 313 312 311 312 312 312 312 313 313 313 312 311 310 311 311 310 310 308 307 307 307 308 306 306 306 306 306 306 304 303 305 304 304 303 303 303 302 302 301 301 300 300 300 299 300 300
301 302 302 302 303 304 307 306 306 305 304 306 307 308 308 308 309 309 310 310 311 311 311 311 311 310 311 312 312 311 312 312 312 312 313 313 314 313 314 314 314 313 313 313 314 315 314 313 313 312 312 311 310 312 312 311 310 308 307 308 307 307 307 307 307 307 306 306 305 304 304 304 304 303 302 301 301 301 301 300 299 299 299 298 299
302 303 303 303 304 305 305 304 304 304 304 304 307 309 308 308 308 309 309 310 312 311 311 311 311 310 310 311 310 310 311 310 311 312 312 313 314 313 314 314 315 315 315 314 315 315 314 313 313 313 313 312 312 313 313 313 312 310 309 308 307 308 308 308 308 308 308 307 307 306 306 305 304 304 302 301 301 300 299 299 298 297 297 298 299
301 301 302 303 302 302 303 302 303 302 303 303 305 309 310 310 307 307 309 309 310 310 311 311 311 311 310 310 309 310 310 310 310 311 311 313 313 314 314 314 315 314 314 314 314 314 314 314 314 314 313 313 313 313 314 314 314 313 311 309 308 308 308 308 308 308 309 308 308 308 306 306 304 304 303 302 301 300 297 297 296 296 296 297 297
301 301 300 300 301 301 300 300 300 300 299 300 302 305 307 308 307 308 308 309 308 310 310 310 310 311 310 309 309 309 310 310 310 310 311 311 311 310 312 312 312 313 313 312 313 313 312 313 314 314 314 314 314 314 314 314 314 313 313 311 309 308 308 308 308 307 308 308 308 308 307 306 305 305 305 303 302 301 299 297 297 296 295 297 296
298 298 299 300 299 299 299 299 298 298 299 300 299 302 304 304 305 306 308 308 309 309 308 308 309 309 309 309 309 308 308 309 309 311 311 310 310 310 311 311 311 311 313 312 312 313 312 312 313 313 313 313 313 313 313 313 314 313 313 312 311 310 309 308 308 308 308 308 308 308 308 307 307 307 307 306 305 303 302 300 298 297 296 296 295
297 297 298 298 298 298 297 297 297 297 297 298 299 297 298 299 302 303 306 307 307 308 308 308 307 308 308 309 308 308 308 309 308 308 308 309 310 310 310 310 310 310 311 311 312 311 310 311 311 311 311 311 312 312 313 313 313 313 312 312 311 311 310 310 309 308 308 308 308 308 308 307 309 310 306 306 305 304 302 299 298 299 298 297 295
294 294 294 294 295 295 295 295 295 295 295 296 296 296 297 299 300 301 302 303 307 307 307 306 307 307 306 306 306 307 308 307 307 308 309 309 309 308 308 308 308 309 309 309 310 309 310 309 310 309 309 309 310 312 312 307 307 313 312 312 312 312 311 311 310 310 310 309 309 309 309 311 309 308 305 301 299 300 302 302 299 299 299 297 296
292 292 292 292 293 293 293 293 293 293 293 294 294 294 295 296 297 298 300 301 304 302 301 299 299 299 301 304 305 305 305 306 307 307 307 307 308 308 308 307 308 309 309 309 309 308 308 308 309 308 308 308 310 311 305 301 298 299 308 310 311 312 311 311 311 310 311 311 310 309 309 309 309 307 306 300 297 296 296 296 297 298 299 298 296
293 293 293 293 292 292 292 292 292 292 293 292 292 292 294 295 294 295 295 296 296 296 295 296 296 297 299 302 302 302 302 302 304 305 306 307 306 307 307 307 307 307 308 307 307 308 308 307 307 307 307 308 308 305 296 295 295 295 298 307 309 310 310 310 310 310 310 310 310 310 309 309 309 309 308 307 300 296 294 294 294 294 293 292 295
294 295 295 294 294 293 292 292 293 293 293 294 294 293 293 293 294 295 295 294 294 294 294 295 295 296 296 297 297 298 298 298 299 300 302 305 306 305 305 304 305 304 305 305 305 303 305 304 305 305 305 305 305 298 293 294 294 293 293 298 306 308 308 309 309 309 309 309 309 308 308 308 308 310 310 304 302 298 294 293 294 294 293 292 289
294 294 294 294 294 295 295 295 295 295 295 293 295 295 294 294 295 294 294 292 293 293 294 294 295 295 295 295 296 297 297 296 296 297 299 300 301 300 299 299 300 300 301 301 301 303 301 301 302 303 303 302 303 294 290 291 292 292 292 294 305 306 307 308 308 307 307 307 306 306 306 306 305 308 303 301 299 299 298 299 298 298 298 296 292
295 295 296 295 295 296 296 297 298 298 297 297 296 295 294 294 293 294 293 294 293 293 294 294 294 294 294 294 296 296 296 296 296 296 296 296 296 295 297 296 296 297 297 298 298 297 297 296 295 296 296 298 299 292 291 291 290 291 291 293 302 304 306 305 304 303 304 305 305 304 304 304 302 302 301 300 299 299 299 299 298 296 295 295 296
290 294 295 295 295 296 296 298 300 300 299 300 297 298 298 296 295 294 295 295 295 295 294 294 294 294 294 295 296 296 297 297 297 296 296 296 295 295 296 296 295 294 294 295 294 293 293 294 293 292 296 298 295 292 291 292 292 292 292 299 301 304 304 299 296 297 298 299 300 302 302 301 300 300 298 295 297 300 299 297 295 294 293 293 294
289 289 291 293 295 298 299 299 299 299 299 299 299 297 297 297 297 297 297 297 297 297 296 295 296 296 296 294 295 296 295 295 294 295 295 295 295 295 294 294 295 294 295 294 292 292 291 291 293 292 293 294 292 292 291 291 292 292 296 301 299 296 295 295 295 295 296 299 300 299 299 297 296 295 293 292 293 296 298 296 295 294 294 294 293
288 289 290 290 292 294 295 294 294 295 295 297 298 296 295 295 295 295 297 298 299 298 298 298 298 297 296 295 295 296 296 295 296 297 296 295 295 295 296 297 297 296 295 293 292 291 290 291 291 291 293 294 293 291 292 291 293 293 296 296 296 295 293 293 292 293 294 296 300 301 297 295 295 294 291 291 292 296 297 296 295 293 292 291 290
287 287 289 289 290 293 293 291 290 290 291 291 293 296 296 295 295 295 293 294 296 296 298 298 300 298 297 296 295 295 296 296 297 296 297 296 297 297 296 293 294 293 292 291 293 290 289 288 289 291 296 290 289 291 292 292 293 294 295 296 296 294 292 291 292 292 292 293 294 295 296 295 295 292 289 290 291 294 295 294 293 293 292 290 290
287 288 288 289 290 290 290 290 289 289 289 289 290 293 295 297 296 295 294 294 294 295 297 298 297 296 296 296 296 297 297 297 297 296 296 297 297 295 294 293 290 289 290 290 291 288 288 288 287 287 288 288 289 290 292 291 293 293 294 296 295 294 292 291 292 292 292 293 293 293 293 289 289 289 289 289 289 290 293 293 293 292 291 289 289
288 289 291 288 288 288 288 289 289 289 289 290 291 293 295 296 295 292 292 294 296 297 297 296 296 296 296 296 296 297 297 296 296 296 296 296 295 295 293 293 292 290 290 288 288 287 287 286 286 286 287 288 291 290 290 290 292 293 293 293 293 292 291 292 292 292 292 291 291 291 292 290 289 289 289 289 289 289 290 292 291 290 290 290 289
289 291 290 288 287 288 288 290 291 290 290 289 289 290 291 290 289 289 291 293 293 294 294 293 293 294 294 294 295 296 297 297 295 296 295 294 293 292 293 291 290 291 290 288 288 288 286 287 285 286 288 286 289 294 290 291 291 291 291 291 292 292 292 292 292 291 291 291 291 291 291 290 288 288 288 288 288 289 290 292 290 288 287 287 290
286 287 288 288 287 287 287 288 290 290 290 289 288 289 289 288 287 289 291 291 290 291 291 293 293 294 294 293 294 294 295 295 295 294 295 294 292 292 291 291 291 290 290 288 287 286 287 288 288 287 285 286 286 289 291 290 290 290 290 290 290 291 290 294 292 291 291 291 292 292 292 289 288 288 288 288 288 288 289 289 287 287 287 287 289
287 288 289 289 287 287 287 287 288 290 290 290 289 289 289 289 289 290 290 290 290 290 290 291 293 293 293 294 294 294 294 294 296 295 294 294 292 291 291 291 291 292 290 289 287 286 287 289 289 288 288 286 286 285 289 290 290 289 289 289 290 290 291 293 293 291 291 291 291 291 291 288 288 288 288 288 288 288 288 287 288 288 287 288 289
285 286 288 288 288 287 287 287 288 288 289 288 289 288 289 289 291 291 292 292 292 292 290 291 291 292 293 293 294 293 293 292 292 293 293 291 290 290 291 289 290 289 290 291 288 288 290 291 288 289 286 286 285 285 287 290 289 289 289 289 289 289 289 289 291 291 291 291 289 288 288 288 288 287 287 287 288 287 286 286 286 287 288 287 287
285 286 287 287 287 287 287 288 288 289 289 289 289 287 288 290 291 291 292 292 293 293 293 293 292 292 292 291 293 291 291 291 291 290 292 291 293 291 291 289 288 289 290 290 289 288 288 288 288 287 286 286 285 285 286 288 290 290 289 289 289 289 290 290 290 289 288 288 288 288 288 288 288 288 288 288 288 288 286 286 286 287 286 287 286
285 286 287 286 286 286 286 287 287 289 289 289 289 289 289 290 290 291 290 290 290 291 292 293 293 293 292 292 292 292 291 290 290 289 289 290 290 290 291 289 288 289 288 288 289 288 288 288 288 287 286 286 286 286 286 287 288 289 289 290 290 290 289 289 289 290 289 289 288 288 287 287 287 286 286 286 286 286 286 286 286 286 286 286 286
284 284 285 285 285 285 285 286 287 288 288 289 289 289 290 290 290 290 290 290 290 290 291 291 292 292 293 292 292 290 291 291 289 289 290 290 289 288 289 290 290 289 289 288 288 288 288 289 289 287 285 286 286 285 286 287 287 288 288 288 289 289 288 288 287 287 288 288 287 286 286 286 286 286 285 285 285 284 284 284 285 285 285 285 285
284 284 285 284 284 285 285 286 286 287 287 287 288 289 289 289 290 290 290 289 290 290 290 290 290 290 292 291 292 292 291 290 288 286 284 287 289 288 289 289 287 289 291 292 290 290 290 290 291 288 286 286 285 285 287 287 288 288 288 288 287 286 286 287 288 287 286 286 286 285 284 284 283 281 281 282 283 283 282 283 284 284 285 285 284
284 284 284 284 286 285 285 285 286 286 287 287 287 288 289 289 290 290 290 289 290 290 289 289 289 289 290 289 290 289 288 289 288 289 289 288 284 287 286 288 289 289 290 290 290 291 292 291 290 289 290 289 288 289 287 287 287 288 288 287 287 287 287 287 287 286 286 282 281 281 280 281 281 281 281 280 280 280 280 281 282 282 282 283 284
283 283 283 283 283 285 285 284 285 286 286 287 287 287 288 288 289 289 289 289 289 289 289 288 288 288 288 289 288 287 286 286 285 286 286 288 288 286 286 287 288 288 288 288 288 289 290 290 291 291 289 289 288 287 287 288 288 288 287 287 287 287 287 286 286 286 282 282 281 281 279 279 278 280 279 279 279 280 280 280 282 282 282 282 282
Wind_Speed
3 5 4 4 3 3 3 5 5 6 7 8 9 5 2 2 5 5 4 5 6 7 6 7 6 5 4 4 4 1 2 2 2 2 2 3 3 2 2 2 2 3 3 3 3 3 2 1 1 1 2 2 2 1 1 2 1 2 2 2 2 2 1 2 2 1 4 2 2 3 3 2 3 4 3 3 2 1 1 3 3 2 2 3 3
4 4 4 3 3 3 3 3 4 8 7 8 12 11 7 5 5 5 4 5 5 5 6 6 4 5 6 5 5 4 3 3 2 3 3 4 5 3 2 2 2 2 2 2 2 3 3 2 1 1 1 1 2 2 1 2 3 2 2 1 1 1 1 1 1 2 1 3 2 0 3 3 3 3 4 4 3 3 2 1 3 4 2 1 2
4 4 4 5 5 4 3 3 2 4 4 4 5 8 9 8 7 6 6 7 5 5 5 6 3 3 4 4 5 4 2 2 3 2 3 5 5 4 3 3 3 2 2 3 3 3 4 3 2 2 2 2 2 2 2 2 2 2 1 1 1 2 2 2 2 0 2 1 2 3 2 2 3 2 2 3 4 4 3 3 2 1 3 2 3
9 7 8 7 7 6 4 3 3 3 4 3 5 7 7 8 7 7 6 5 6 4 4 4 7 7 8 7 5 4 4 3 4 4 4 5 5 3 4 3 3 4 3 3 3 3 4 4 3 2 2 2 2 3 2 2 1 1 2 2 2 1 1 1 1 1 2 5 2 1 1 2 3 3 2 2 4 3 3 3 2 2 3 3 3
8 7 8 9 9 9 8 5 4 5 5 6 8 9 7 10 10 9 7 7 5 5 6 8 8 8 7 6 6 6 5 4 4 4 3 3 3 5 3 3 3 5 4 3 4 4 3 3 3 2 1 1 2 3 2 1 0 0 1 2 3 2 3 1 2 3 3 1 4 4 2 1 4 1 1 1 3 2 3 2 2 2 1 3 2
8 7 5 4 5 4 4 6 6 6 7 7 6 8 9 8 8 7 6 6 7 6 8 7 8 9 8 7 6 5 5 3 3 3 2 3 3 1 3 3 3 5 4 4 4 4 4 4 4 3 3 3 2 2 3 2 2 2 2 1 2 1 2 2 2 3 4 5 4 2 1 2 2 2 0 1 2 1 2 2 2 3 3 3 2
4 4 5 6 6 5 6 7 7 7 7 4 5 4 4 7 7 8 8 7 6 7 7 8 7 7 8 8 7 7 7 1 0 1 2 2 2 4 3 4 3 5 4 4 4 4 4 3 3 3 3 3 3 4 4 3 2 0 1 1 1 1 2 2 2 2 2 4 3 3 3 1 3 4 2 3 2 3 3 2 3 5 5 6 5
7 7 6 6 7 8 11 9 8 7 3 1 2 4 5 4 4 6 6 7 6 7 6 7 9 6 6 6 6 6 6 5 3 2 0 2 5 3 4 4 4 4 5 4 4 4 4 4 3 4 4 3 4 5 4 3 4 3 2 2 2 2 3 3 2 3 2 1 2 2 2 3 3 2 3 3 4 3 1 2 3 6 5 5 3
8 8 8 8 9 10 8 7 2 3 5 7 10 13 14 15 12 7 6 7 7 7 6 4 7 8 8 7 6 3 4 5 3 2 3 2 5 3 4 4 4 4 4 4 4 3 3 4 4 4 4 3 3 5 4 5 5 4 4 4 3 2 2 2 3 3 2 3 3 2 2 2 2 2 2 3 3 3 1 2 3 2 6 9 7
6 7 7 7 7 6 2 4 9 9 13 14 13 12 11 7 6 8 2 3 4 6 7 6 7 8 8 7 9 5 5 4 4 4 2 2 5 3 3 5 4 4 4 3 4 4 4 3 4 5 4 3 4 5 5 5 4 5 4 4 4 5 3 3 2 2 3 2 1 2 1 1 2 2 4 4 6 6 2 3 4 5 7 6 6
6 6 6 5 4 2 8 12 15 14 12 14 11 8 7 10 9 3 2 2 2 4 6 8 7 8 9 8 9 9 7 7 6 4 3 3 5 3 3 3 4 4 3 3 3 3 3 3 4 4 3 3 4 4 4 5 4 5 5 6 6 6 5 5 6 4 3 3 3 1 1 2 1 2 3 1 3 3 6 6 4 4 4 8 7
4 5 5 5 4 8 14 17 17 15 15 15 13 12 6 7 6 7 4 4 4 5 5 6 7 6 6 8 8 9 9 8 8 7 5 5 5 5 1 3 3 3 3 4 3 2 3 4 3 4 4 4 4 3 4 5 5 5 5 5 5 5 5 6 6 6 5 5 5 3 4 4 5 5 2 2 4 3 6 5 6 0 4 4 0
6 6 6 5 6 11 16 14 10 9 11 14 17 17 18 17 18 15 8 7 7 7 7 6 5 6 7 6 6 7 7 8 8 7 5 6 5 5 4 4 3 4 2 4 2 2 2 5 4 4 3 2 3 3 3 4 4 5 5 6 5 6 5 6 6 5 5 6 5 4 5 5 5 1 3 4 4 5 5 5 0 2 4 2 3
2 2 2 3 8 11 12 10 8 6 6 9 11 13 11 11 5 3 3 6 7 7 8 7 6 6 7 7 7 7 7 7 6 7 6 5 5 5 5 5 5 5 3 3 1 1 2 2 2 3 2 2 2 3 3 3 5 6 5 6 6 5 5 6 6 5 5 5 4 6 5 5 4 3 4 5 4 5 4 5 4 3 3 3 2
8 9 10 9 7 11 10 9 7 6 7 9 9 8 6 9 5 4 8 4 1 3 5 7 7 7 8 7 7 6 7 6 5 5 6 6 4 5 3 2 4 3 4 2 2 2 2 3 3 3 3 2 2 2 2 3 4 5 5 6 5 5 6 6 5 5 6 5 5 5 5 5 5 4 5 5 4 5 5 4 4 7 4 4 4
9 11 12 12 7 4 8 7 6 5 7 8 9 4 9 9 12 6 2 2 3 3 6 9 9 7 6 7 6 6 4 4 4 4 5 5 6 5 4 3 1 1 1 1 2 2 2 3 3 3 2 2 1 1 2 2 2 5 5 5 6 3 6 7 5 6 6 6 5 4 6 5 4 4 5 5 5 4 5 4 5 5 7 4 2
4 5 10 11 10 4 2 5 4 5 6 8 7 10 10 11 10 7 7 6 6 10 9 3 6 7 7 6 6 5 6 7 7 6 5 4 5 5 4 4 2 1 1 1 2 2 2 2 2 3 2 2 1 1 2 2 2 2 3 4 6 4 6 7 5 6 5 6 5 5 6 5 4 4 5 5 5 5 4 4 4 4 5 7 3
2 5 5 7 10 10 1 6 7 9 9 7 9 9 6 12 10 9 8 10 11 8 6 5 5 6 5 4 6 8 8 7 6 7 6 5 4 5 4 4 4 2 2 1 1 2 1 1 2 1 2 2 1 1 2 2 2 3 3 3 2 2 5 4 5 6 6 5 5 5 4 4 2 4 4 4 5 5 5 5 5 4 4 6 4
2 4 2 1 6 8 7 6 7 2 4 5 8 10 11 10 5 6 9 10 10 6 5 6 7 5 5 6 6 7 6 6 5 5 5 5 5 5 6 4 4 3 3 2 2 1 1 1 1 1 1 1 1 1 1 2 2 2 2 2 3 3 3 3 1 4 4 5 5 5 4 5 4 5 4 4 4 5 5 5 5 5 5 6 6
3 3 2 3 4 8 9 7 7 3 4 6 6 8 11 11 6 4 4 4 4 5 5 5 6 6 6 5 4 4 5 6 6 7 6 6 5 5 4 4 3 3 3 2 2 2 2 2 0 0 1 1 1 2 1 1 2 1 1 0 1 2 2 2 2 2 2 4 5 5 4 5 5 5 5 5 5 5 5 6 6 6 5 4 6
4 4 6 4 3 4 4 5 3 2 4 5 4 5 6 4 3 4 6 5 5 3 4 4 4 5 6 7 6 4 3 4 5 4 5 5 3 3 2 1 5 5 3 1 0 1 1 1 1 1 1 1 0 0 1 2 1 1 0 0 0 1 1 1 1 1 1 3 4 5 5 4 4 6 5 5 6 5 5 6 5 6 6 4 5
3 4 3 3 4 4 3 2 2 2 3 5 4 3 3 3 3 3 3 4 3 2 3 4 4 3 5 4 4 4 3 4 6 5 4 3 2 2 2 2 6 4 4 2 3 5 5 5 3 4 3 2 4 6 7 6 3 2 2 1 3 3 2 2 1 2 1 1 2 4 4 4 3 6 5 5 5 5 5 6 4 5 5 4 1
4 4 3 3 3 3 3 3 2 3 4 4 4 4 3 3 3 3 3 2 2 3 3 3 3 3 4 4 5 4 5 5 5 4 4 5 5 5 4 3 3 5 4 5 4 2 1 1 2 1 1 5 5 5 2 2 4 6 6 4 3 4 4 4 4 4 3 0 2 3 4 4 3 6 5 5 5 6 4 6 5 4 6 4 3
4 4 4 3 3 3 4 3 3 3 3 4 4 4 4 4 4 4 4 4 4 3 4 4 4 4 4 5 5 5 6 6 6 6 7 6 7 6 6 5 4 4 5 4 5 5 2 1 1 0 3 4 3 5 6 5 2 1 5 6 4 4 5 5 5 5 4 4 4 4 4 3 3 6 5 5 4 5 6 6 6 4 5 5 4
4 5 4 4 4 5 3 3 3 4 3 3 3 4 4 4 4 4 3 3 4 3 5 4 5 6 5 6 5 5 6 6 7 6 6 5 5 6 5 5 5 3 3 3 1 2 3 3 2 1 2 4 4 1 2 1 2 5 5 5 6 5 6 6 6 5 4 5 5 6 5 4 4 5 4 5 4 6 5 6 6 4 4 4 3
5 4 4 4 3 3 4 3 3 4 4 3 3 3 3 3 4 3 4 3 4 4 4 5 5 7 6 6 6 6 7 7 8 7 7 6 6 6 5 4 5 5 5 4 3 2 4 6 5 5 4 4 4 4 4 4 4 3 4 5 6 6 6 6 6 6 6 6 7 7 6 6 6 6 6 5 5 7 5 6 7 5 4 4 4
4 4 3 3 4 4 3 3 4 4 3 3 3 2 2 3 4 4 3 3 3 4 5 5 4 6 6 6 5 5 6 7 8 8 6 6 6 6 5 5 4 6 4 2 3 4 1 4 7 6 6 6 6 4 4 4 4 5 6 4 5 6 6 5 6 6 6 6 6 6 6 7 7 7 7 8 7 7 6 7 6 7 5 6 5
2 3 4 4 3 3 3 3 4 4 5 4 2 1 3 3 4 4 4 4 4 5 4 4 4 4 4 5 4 5 4 6 7 5 4 4 4 5 4 4 3 3 4 6 5 4 5 5 6 4 3 3 3 3 4 5 5 5 6 6 5 6 7 6 6 6 6 6 7 6 7 7 8 8 8 7 8 7 5 5 3 4 5 6 3
2 3 3 2 2 1 2 2 2 2 4 5 5 3 1 1 1 2 4 4 4 5 5 5 4 5 3 3 3 3 4 5 6 5 3 3 5 4 5 5 5 4 3 3 3 4 4 4 3 3 4 4 4 5 5 5 5 6 5 6 6 7 7 6 6 5 5 5 6 6 7 7 8 8 10 10 10 8 7 6 5 6 5 5 4
4 4 5 5 5 4 3 3 3 2 2 3 3 4 3 4 2 2 3 3 5 5 6 5 5 4 3 3 4 5 5 5 6 6 6 5 4 2 3 4 4 3 3 3 2 2 3 3 4 4 4 4 5 4 6 9 7 5 5 5 5 6 6 5 5 5 6 6 7 7 7 9 11 12 11 11 11 12 9 7 8 7 7 6 4
6 5 5 4 4 4 4 4 4 4 5 6 5 2 3 4 3 3 2 1 3 4 4 5 4 4 4 3 3 3 4 5 4 4 2 3 2 1 1 1 1 1 1 0 1 2 2 2 4 4 3 3 4 4 4 5 6 6 5 5 5 5 5 5 5 6 7 7 6 6 6 7 8 9 10 7 5 8 10 10 11 9 7 7 6
6 6 6 7 6 6 6 5 5 5 5 5 4 5 3 4 3 4 3 3 4 5 5 4 3 3 3 3 3 2 2 3 5 5 5 4 3 3 2 2 2 1 0 1 1 3 3 2 2 2 3 4 4 3 6 5 5 3 3 4 4 5 5 5 5 6 6 6 6 5 5 5 6 7 6 6 8 8 8 9 10 8 9 8 4
7 8 8 7 7 6 6 7 6 7 7 6 4 4 4 4 3 2 2 4 5 4 5 5 4 4 4 3 3 4 3 3 2 3 4 4 4 3 2 2 2 2 3 2 2 1 2 1 2 3 4 4 4 6 7 7 7 5 2 4 4 5 5 6 6 5 5 6 5 5 5 5 5 7 6 5 6 6 6 10 11 11 10 9 9
7 7 7 6 6 6 6 5 5 6 6 4 6 5 5 4 4 4 5 4 5 4 5 4 4 3 3 3 5 6 6 4 4 4 4 5 5 5 4 3 4 4 4 3 2 1 1 1 1 2 3 2 1 4 5 5 5 6 5 4 4 4 4 5 5 4 4 5 5 5 5 5 4 4 4 6 7 8 7 7 6 5 5 6 7
6 8 7 7 6 7 7 8 7 5 5 8 10 8 6 8 8 8 7 6 5 6 6 4 5 3 3 4 5 5 5 4 5 5 5 5 4 4 4 3 4 4 6 6 6 5 3 3 1 1 1 3 2 4 6 6 5 4 4 2 2 2 2 2 2 3 4 5 5 5 5 5 3 3 4 7 8 8 8 6 6 5 4 4 4
6 4 4 4 4 4 4 3 3 5 6 8 7 7 9 7 5 7 6 7 6 7 5 5 5 4 4 4 5 5 4 4 5 5 6 5 4 4 4 3 4 4 4 5 4 5 5 4 3 3 3 3 4 8 9 9 8 6 3 2 1 1 0 2 4 4 4 3 3 2 2 2 2 3 3 7 7 7 8 7 6 5 4 4 4
7 5 5 4 6 7 8 7 7 5 6 3 2 1 2 4 7 6 7 6 7 8 8 6 4 3 4 4 5 6 5 5 5 6 5 4 4 3 3 2 5 3 3 4 4 4 3 3 3 3 4 2 1 4 7 8 7 3 3 3 3 4 4 5 5 5 5 5 4 4 4 5 5 4 4 8 9 9 8 7 6 5 3 4 3
6 7 7 8 8 7 7 5 5 6 6 5 4 3 3 4 4 4 3 4 4 4 4 4 4 3 2 2 3 5 6 6 6 6 6 5 5 4 4 3 6 4 3 3 3 4 4 3 2 2 0 1 0 2 4 4 2 1 3 4 4 5 5 5 5 6 5 6 7 11 7 6 7 5 6 9 8 8 7 6 6 6 5 4 3
5 5 7 7 7 4 3 6 8 10 10 8 6 4 5 4 2 1 1 0 1 2 3 4 3 5 3 4 3 4 4 5 6 6 6 6 6 6 5 4 5 5 4 3 3 4 3 3 2 1 2 1 2 3 5 3 3 5 5 4 5 5 5 4 5 6 6 6 6 8 9 8 7 7 10 9 9 7 7 5 5 5 4 3 2
4 4 4 3 3 5 8 7 7 6 7 7 5 3 3 4 5 3 0 3 3 4 5 5 4 4 4 2 2 3 5 5 5 4 3 5 5 5 6 6 4 4 5 4 2 3 4 1 2 3 3 3 3 3 4 4 3 6 7 5 4 5 5 5 5 5 6 6 6 5 7 10 11 11 11 12 11 10 6 4 4 4 3 3 2
5 5 4 5 5 4 3 3 3 3 5 6 6 6 5 5 5 4 5 6 7 5 4 4 4 3 3 4 3 5 5 3 4 5 4 3 3 5 5 5 6 5 6 5 4 4 4 3 3 3 3 3 2 3 4 5 3 6 9 8 5 5 6 6 6 6 5 5 4 5 4 7 11 11 11 11 11 10 7 6 5 4 2 2 2
4 6 5 5 5 5 6 4 3 4 4 4 3 3 4 4 5 5 8 7 5 7 6 4 4 4 4 5 5 5 5 6 4 4 5 4 2 3 5 6 6 7 6 5 3 3 4 2 2 3 3 3 4 4 3 4 2 6 7 9 6 6 7 8 6 4 4 5 5 4 4 5 9 9 9 9 9 9 9 5 5 5 5 4 3
6 6 5 5 6 6 7 6 6 3 2 3 3 4 4 4 4 8 8 7 6 5 5 5 5 6 6 6 6 5 6 4 5 5 6 6 4 5 4 5 6 5 6 5 4 4 3 2 1 1 2 2 3 3 3 2 3 1 4 6 9 8 7 6 8 7 5 5 3 4 4 6 9 9 9 10 9 9 7 5 7 7 7 6 4
4 4 4 4 4 5 6 6 7 7 4 3 2 4 4 4 7 6 6 7 7 6 4 5 6 7 7 7 6 6 4 3 5 6 5 7 6 4 5 5 6 7 6 5 4 4 3 3 4 3 0 2 3 3 3 5 4 5 4 7 9 9 8 5 6 7 6 5 5 4 4 8 10 11 11 11 11 9 8 10 10 9 7 5 3
4 5 5 5 6 6 5 6 6 6 6 4 2 3 5 6 6 5 6 7 7 5 3 4 6 7 8 7 5 4 4 4 3 5 5 5 4 5 5 2 5 5 5 6 6 5 5 5 4 4 3 1 2 3 3 5 7 7 8 8 10 12 11 12 8 5 6 5 6 8 10 11 11 11 11 10 9 10 11 10 9 8 6 4 4
4 5 6 5 5 5 6 7 7 7 8 6 6 3 5 8 7 7 6 6 6 6 5 5 4 4 4 3 5 4 4 5 5 5 5 7 8 7 6 6 5 6 6 6 6 5 5 4 5 4 4 3 2 3 3 4 4 6 6 9 10 11 11 12 10 8 9 11 11 12 13 11 10 8 8 7 6 6 8 9 9 7 5 4 4
4 4 4 6 4 5 5 5 7 6 7 8 8 8 7 7 8 8 7 6 5 6 6 6 6 4 2 3 4 5 3 2 2 2 2 3 3 6 6 6 6 6 6 5 5 5 5 5 6 6 4 4 4 4 4 4 5 6 6 7 8 8 11 11 9 7 7 7 8 7 7 9 8 10 9 6 5 5 7 6 5 4 4 3 3
4 5 4 4 4 5 6 5 5 5 5 6 6 8 9 9 9 9 7 6 6 6 6 6 7 5 4 4 5 5 5 4 2 2 3 1 0 2 5 7 7 7 6 6 6 6 7 7 7 5 5 5 5 5 5 6 6 6 6 5 5 6 7 7 8 7 7 6 7 5 7 5 6 7 6 6 5 4 3 3 4 3 3 3 3
7 7 5 6 5 6 6 7 7 5 5 5 7 7 7 8 9 9 8 6 8 8 7 6 6 4 6 4 4 4 5 5 4 3 2 3 3 4 5 5 4 4 5 6 7 7 7 7 6 6 7 6 4 6 8 7 8 9 10 9 7 7 7 6 8 10 8 6 6 7 5 6 5 5 4 4 4 5 4 3 4 4 3 3 3
6 7 7 7 7 8 9 8 8 5 5 6 6 7 7 7 7 8 7 7 8 8 8 8 7 6 6 5 4 3 3 3 2 2 2 2 1 3 3 4 5 1 3 4 5 7 7 6 6 7 8 8 10 9 9 12 10 9 8 10 10 9 10 9 10 10 8 7 5 5 4 4 4 4 4 3 3 3 3 3 3 3 3 3 3
7 8 8 8 8 7 7 8 8 6 6 7 7 6 7 8 7 7 7 8 7 7 7 8 6 6 6 6 3 2 1 0 1 1 1 4 5 3 2 4 5 7 6 7 7 10 8 8 8 7 7 4 3 9 15 13 11 10 12 12 13 13 14 14 13 9 6 5 5 5 4 4 3 2 3 1 1 2 3 2 3 3 3 3 3
Wind_Direction
150 162 178 199 194 204 197 168 162 172 168 148 142 153 127 105 122 145 146 140 141 141 137 134 121 105 84 93 112 84 94 58 40 6 31 44 76 93 112 114 120 142 148 139 134 153 104 79 79 83 87 89 96 129 81 97 131 178 169 174 169 183 196 127 79 78 117 49 2 15 353 9 2 4 347 345 16 47 66 70 71 74 196 199 213
131 147 177 190 190 192 233 219 176 183 206 172 161 161 155 134 150 150 163 160 163 162 147 134 145 153 142 144 127 97 82 68 45 15 27 41 42 52 77 101 132 154 143 126 145 101 115 117 128 145 134 116 129 97 135 148 148 158 159 114 334 197 242 75 102 97 54 154 130 312 349 340 40 34 9 343 338 335 329 152 82 48 6 219 198
167 177 176 192 191 184 198 249 262 230 190 174 157 152 155 158 166 160 180 165 157 149 145 141 126 114 111 136 124 102 76 111 111 53 49 59 52 51 73 93 107 130 138 144 134 116 136 141 153 156 145 138 127 112 68 88 102 126 146 137 139 50 52 58 123 97 146 99 92 81 312 16 330 10 353 355 340 334 345 336 54 201 242 187 175
189 182 189 192 192 188 187 208 220 211 188 147 151 160 161 163 158 163 172 155 141 144 126 107 101 94 90 107 89 106 126 94 76 50 43 55 52 40 50 67 98 101 121 141 135 140 145 146 158 167 160 149 121 118 101 55 58 112 137 130 114 141 87 35 110 111 129 138 113 138 239 88 326 287 328 325 345 325 347 312 347 258 257 214 182
193 191 193 191 191 196 190 180 186 204 203 186 171 170 172 169 165 161 158 148 140 138 130 122 101 87 92 80 86 79 60 57 65 39 32 80 83 51 31 44 75 90 95 113 122 123 131 138 145 146 137 88 126 132 132 150 251 227 192 175 179 155 175 183 70 77 85 278 139 92 53 144 233 308 21 345 13 24 350 355 43 22 301 263 270
198 203 200 200 197 188 194 189 190 204 205 199 188 172 166 160 148 136 134 131 135 142 139 129 129 132 127 123 113 98 108 102 125 147 104 90 110 84 56 54 78 86 83 95 100 111 111 121 130 141 138 122 128 125 117 122 182 200 219 243 146 278 150 130 142 48 72 51 62 127 160 177 169 246 158 224 322 206 298 330 4 16 10 6 19
196 196 182 179 192 192 204 203 200 204 209 186 180 167 153 142 136 137 140 131 138 144 142 129 130 138 141 142 142 145 141 207 315 315 110 109 86 78 71 60 68 100 89 91 93 96 107 111 122 116 98 92 101 106 105 121 115 344 99 172 150 146 142 139 149 109 65 69 69 89 110 205 166 145 185 105 68 319 6 353 340 14 10 29 18
184 189 194 189 189 196 207 206 202 202 178 160 82 53 45 42 79 116 131 135 151 148 149 144 133 127 116 116 131 141 150 156 146 132 241 121 88 75 75 52 59 78 105 98 103 110 110 103 97 93 83 75 85 86 100 90 85 61 82 133 138 157 154 153 139 121 151 99 75 73 48 42 36 24 127 152 150 149 308 346 40 10 27 39 15
180 184 193 195 197 204 204 209 199 64 47 46 54 58 49 34 21 318 150 151 153 149 134 122 124 129 129 129 118 113 119 120 116 88 103 85 91 56 76 70 58 56 67 96 94 98 97 112 106 94 89 82 90 87 70 68 76 79 74 99 121 109 128 154 147 157 153 157 123 62 62 38 48 24 19 51 96 111 1 356 345 338 60 18 6
193 185 185 197 204 204 185 47 49 58 73 78 76 76 93 121 199 258 256 127 132 126 127 119 124 128 133 143 137 137 122 103 110 112 93 92 101 68 79 75 73 65 56 62 74 67 83 90 93 93 97 92 77 90 85 72 65 71 67 74 77 91 46 102 129 142 138 117 40 130 122 54 3 24 34 44 47 49 79 51 15 38 49 359 16
190 181 182 194 189 119 70 73 81 82 88 88 91 99 116 164 218 239 266 43 75 119 131 139 146 150 148 148 144 143 148 140 133 124 114 106 117 94 77 78 69 73 69 64 70 69 84 81 92 96 80 80 91 94 101 107 99 91 78 68 60 67 69 78 79 65 65 57 47 55 107 109 122 99 64 46 107 127 81 40 19 4 84 78 29
176 166 173 166 138 90 93 103 106 113 119 122 122 120 164 218 207 222 175 138 134 143 146 156 151 146 134 144 149 155 155 156 155 163 167 152 144 134 120 88 63 67 65 83 69 62 92 82 81 82 93 93 93 101 106 109 110 103 89 85 79 73 79 82 83 86 81 77 59 59 67 72 58 66 95 103 110 131 115 130 109 259 64 61 155
174 175 164 164 135 106 118 127 128 145 138 146 155 163 181 186 188 186 174 156 165 165 163 161 150 144 143 152 154 160 161 160 159 156 168 153 150 137 137 132 113 98 77 93 97 89 102 115 110 111 99 100 113 99 100 102 103 92 95 89 91 93 104 105 94 100 108 93 96 77 84 66 62 38 103 105 70 88 129 123 257 295 136 113 7
140 120 88 79 86 112 134 140 152 152 146 157 168 168 171 184 181 151 143 173 170 167 163 160 160 151 155 161 165 164 166 164 164 156 162 154 153 157 161 163 157 165 151 155 157 64 43 51 91 80 64 73 93 109 117 112 97 96 93 91 92 110 103 94 100 103 85 95 113 88 70 81 80 76 98 87 100 93 77 116 135 38 42 83 1
55 48 37 30 72 122 142 165 160 149 153 157 178 184 130 59 28 211 175 174 198 192 165 160 158 160 165 172 168 167 163 166 160 153 152 150 154 147 163 166 163 179 166 162 83 72 59 63 67 78 63 49 40 64 68 85 100 103 104 108 111 120 99 101 101 104 97 96 80 99 100 72 74 70 78 76 95 89 114 155 135 123 69 41 56
77 80 67 54 22 137 160 178 169 156 161 164 172 132 84 146 188 179 85 95 133 182 196 179 172 154 154 164 173 164 149 139 139 139 147 151 152 149 167 176 223 172 135 81 72 92 81 79 77 75 72 73 57 44 48 55 79 111 117 117 115 130 105 98 111 96 94 89 91 81 75 64 55 67 73 84 77 102 104 105 109 109 128 106 27
37 67 103 101 93 15 259 181 180 170 168 179 147 118 167 193 189 153 113 135 184 196 200 165 138 152 176 172 155 152 155 167 174 169 157 151 147 149 151 180 162 127 103 64 96 68 78 86 83 83 73 77 97 72 65 55 19 26 76 113 121 124 113 127 129 108 119 114 95 89 106 95 57 71 74 77 92 86 81 83 82 124 149 132 134
30 7 2 97 114 118 228 250 204 188 180 155 127 148 158 203 184 155 154 172 200 192 162 148 158 158 160 163 175 173 174 179 176 163 148 147 147 145 133 151 182 154 125 115 115 105 72 86 109 97 78 80 111 96 81 60 49 51 19 11 27 87 113 114 126 130 134 120 114 92 89 84 29 72 73 63 75 84 79 72 78 78 100 123 148
143 213 219 93 103 113 132 241 252 226 86 113 133 145 178 216 176 148 185 190 192 181 131 136 151 166 162 175 188 186 181 173 157 142 144 158 168 162 179 169 136 144 143 140 123 128 136 144 129 122 90 83 72 80 84 85 78 87 40 16 359 3 45 67 236 121 152 118 110 97 96 91 99 93 79 68 64 81 89 87 73 66 52 95 108
174 178 176 103 99 121 143 192 222 196 116 113 137 157 185 204 173 165 197 208 188 175 138 145 167 160 169 171 198 214 185 167 156 152 159 176 178 177 174 169 157 137 133 138 152 164 185 206 78 59 34 33 57 57 65 67 63 64 29 5 348 22 74 75 40 6 96 108 110 100 94 109 108 95 82 78 82 77 93 90 83 80 66 70 87
146 140 109 106 107 99 135 186 186 104 93 94 104 157 185 188 160 172 189 197 194 169 123 130 148 168 165 179 183 182 172 139 134 143 164 177 164 156 128 99 93 64 46 27 4 262 211 180 153 176 179 158 76 35 73 125 135 129 356 95 264 9 330 324 88 80 4 113 121 123 129 108 110 94 94 94 86 90 84 78 84 86 78 60 96
86 77 98 124 104 105 117 97 65 82 77 85 92 106 133 141 139 160 172 199 165 126 124 126 158 145 169 175 167 148 142 136 138 142 151 141 99 80 86 53 70 79 89 49 8 353 356 360 348 338 346 18 34 32 14 8 343 286 265 223 202 187 203 293 342 253 305 346 113 126 130 103 82 107 111 102 112 103 95 84 58 88 87 75 125
86 78 47 41 59 87 98 93 75 71 76 86 89 92 89 90 102 129 148 134 107 135 128 117 130 147 149 150 143 152 149 144 133 133 115 94 88 84 85 100 111 116 117 105 95 79 332 339 347 22 69 73 80 83 82 14 321 305 288 267 217 198 197 193 214 237 236 204 126 151 175 144 135 100 102 116 121 110 103 99 102 98 102 92 69
97 93 87 77 76 73 75 70 64 53 60 76 94 97 96 100 112 117 131 134 118 120 121 110 109 112 135 136 143 151 146 148 138 120 112 131 132 130 138 145 153 141 136 139 167 198 192 207 224 115 87 111 148 167 180 190 172 282 287 279 262 243 230 209 210 218 201 194 194 186 223 194 147 121 133 124 118 119 118 120 119 120 119 123 111
104 98 98 98 91 83 76 69 71 70 61 56 72 94 107 109 106 103 106 130 133 120 108 110 120 120 118 120 132 146 142 138 125 125 124 117 118 130 142 153 157 169 127 118 342 6 323 318 290 213 173 168 198 265 323 15 180 212 231 266 266 238 225 220 215 211 207 202 200 208 202 188 171 138 161 143 150 137 140 132 133 146 134 142 108
104 98 103 107 110 99 83 77 74 65 73 61 55 65 86 92 97 110 110 108 136 127 117 119 123 120 126 129 139 141 145 139 129 115 114 122 124 121 124 137 146 123 102 128 187 221 223 232 230 231 234 199 195 191 213 246 269 265 222 232 248 245 239 226 222 215 206 202 209 215 204 181 182 178 185 176 168 158 152 148 148 157 149 120 118
121 135 133 111 91 90 92 98 98 89 76 71 82 79 81 103 111 124 127 126 131 133 132 123 119 120 125 133 135 138 138 133 119 120 128 140 133 139 151 153 152 130 129 185 163 147 133 258 251 229 232 234 229 217 212 219 230 264 279 257 247 248 247 234 227 220 218 216 224 220 204 191 195 196 184 185 179 177 174 174 164 159 150 139 147
83 105 112 116 106 94 93 80 85 102 106 90 77 137 155 167 148 145 142 136 133 123 116 111 117 112 123 144 146 145 123 108 111 117 153 168 152 169 153 153 156 137 138 168 189 177 192 207 242 239 246 241 243 236 232 248 245 238 248 260 260 252 247 244 240 232 222 222 220 221 216 206 207 205 197 191 182 179 168 151 166 139 147 115 126
33 30 27 44 80 95 94 89 80 74 85 112 120 110 76 46 71 119 128 139 140 122 117 118 118 131 155 151 147 113 106 112 108 127 157 189 198 176 131 135 140 136 156 209 180 143 167 203 234 247 252 239 230 245 249 243 253 263 254 254 243 235 236 241 241 244 244 240 233 226 224 220 218 219 210 196 193 174 164 167 169 156 138 131 146
26 19 19 19 17 14 9 16 26 30 51 72 97 117 135 131 125 108 106 129 116 118 123 126 133 147 154 152 146 135 132 122 128 149 173 185 200 173 147 136 135 153 166 202 236 151 168 202 231 238 227 225 229 233 237 237 230 232 238 236 234 234 233 235 242 246 243 231 233 230 235 229 228 231 226 215 202 189 185 169 167 165 154 140 136
37 33 32 32 31 26 22 24 16 15 5 359 353 7 78 93 112 109 95 46 89 110 102 119 143 164 162 156 153 148 131 129 130 135 176 156 124 72 54 62 87 84 107 54 27 329 284 234 235 249 260 255 260 262 274 274 271 263 253 242 238 247 233 237 243 249 260 260 248 237 245 242 240 240 239 236 214 196 177 170 159 158 159 150 141
50 45 40 35 30 26 29 24 19 13 14 19 1 340 5 62 68 89 94 73 81 90 88 73 76 95 127 155 169 136 131 135 140 149 150 144 131 128 120 73 42 46 66 42 305 262 269 278 298 315 298 278 285 340 334 310 292 275 244 251 250 253 248 242 241 243 252 261 267 265 252 247 242 239 219 196 188 190 181 159 140 117 92 71 87
38 45 45 41 35 29 32 34 29 16 10 1 357 17 7 354 23 15 67 82 82 88 89 78 76 100 118 136 134 124 106 89 102 116 115 107 109 101 103 123 179 148 127 159 199 254 309 359 21 355 329 334 319 356 360 350 331 320 249 224 241 239 247 248 240 246 257 264 269 271 271 253 253 237 209 167 146 140 113 110 102 93 81 87 87
40 42 46 45 45 41 38 42 43 33 31 18 31 23 350 343 356 14 53 53 80 59 74 76 66 56 59 80 106 111 104 103 96 88 99 120 127 144 157 153 129 114 113 90 64 48 10 8 339 249 252 283 312 7 351 337 322 310 299 245 246 239 239 252 257 258 261 263 258 255 262 266 240 182 150 152 145 137 130 107 84 68 78 76 77
32 47 39 29 26 37 42 33 31 29 35 33 26 17 16 25 14 35 25 38 39 60 49 60 70 52 54 58 73 83 86 76 75 82 83 76 87 90 85 86 106 128 138 147 153 148 153 150 142 202 308 9 18 352 340 324 314 310 312 236 263 251 255 275 304 287 268 262 256 244 235 234 191 157 154 155 142 134 118 103 95 90 82 73 69
13 7 5 28 44 56 39 360 8 36 32 43 35 24 26 17 27 39 32 38 38 50 34 36 57 62 77 88 98 90 84 81 80 75 74 69 60 59 78 44 50 45 59 89 69 80 95 71 36 40 49 6 339 347 344 333 331 355 54 59 38 17 68 49 31 17 5 346 315 258 174 108 89 87 113 137 133 127 116 114 111 114 102 86 64
12 19 14 353 354 359 357 356 352 14 18 16 358 23 36 43 34 32 33 29 33 31 16 5 23 39 85 110 108 106 105 103 104 95 101 116 112 92 92 98 82 65 77 65 65 65 46 76 97 122 135 183 275 317 323 316 324 39 82 77 86 69 59 54 34 14 9 16 26 56 77 85 70 58 77 111 120 117 107 113 117 110 106 108 112
16 18 30 23 17 14 19 17 355 358 355 342 345 360 40 33 27 9 30 33 69 50 36 336 37 317 32 51 109 119 124 130 118 118 124 132 127 122 143 157 134 136 105 105 113 77 44 34 43 32 354 116 335 288 321 305 280 171 107 103 96 90 68 60 49 31 23 27 46 68 83 83 85 70 90 96 102 105 102 106 113 118 115 112 129
23 28 17 12 13 15 22 13 19 13 345 343 340 337 344 329 314 18 14 315 205 195 184 232 189 231 204 190 160 132 132 130 127 149 142 134 134 140 148 129 122 116 132 149 141 114 77 24 2 330 334 26 316 318 337 323 160 130 112 107 102 94 82 54 71 59 40 48 46 48 63 80 85 91 81 77 76 84 88 99 115 109 110 96 76
2 12 10 348 350 17 23 21 13 345 326 328 338 341 339 312 329 5 256 236 238 214 211 211 243 242 232 224 191 149 153 146 150 154 149 137 146 128 135 122 91 89 124 124 121 106 109 46 341 1 349 352 348 326 326 318 153 131 129 123 122 113 115 104 83 86 77 57 51 57 57 71 77 72 65 60 53 59 82 67 65 76 100 85 115
360 353 1 12 1 8 360 340 321 321 335 342 350 353 325 303 300 312 283 252 254 274 272 244 206 211 246 231 211 172 163 198 186 169 157 137 138 134 128 117 124 118 116 116 114 127 112 65 17 11 8 357 343 321 317 309 182 148 143 133 128 122 133 123 115 97 92 94 78 65 57 61 71 71 71 69 67 63 68 70 64 74 74 122 134
356 348 8 7 353 347 340 337 332 353 336 340 351 351 299 311 325 291 262 261 260 260 261 269 255 214 218 236 218 211 192 180 178 140 136 155 187 145 143 138 139 140 129 124 123 110 109 73 16 18 20 350 341 359 320 318 256 164 156 142 134 154 149 126 105 90 104 109 120 122 109 81 79 78 76 73 67 62 56 61 62 80 90 78 62
347 352 353 5 350 341 330 317 316 325 312 321 9 359 333 323 305 276 285 297 285 273 263 248 237 233 224 219 226 212 199 185 176 175 154 161 164 140 131 134 130 123 124 134 135 134 127 117 82 10 4 358 353 343 23 14 341 227 166 145 135 137 147 130 129 131 132 119 93 91 86 78 75 71 67 65 61 60 60 54 55 53 48 53 52
336 333 337 356 345 333 326 317 316 319 328 329 12 346 322 322 290 286 304 302 294 277 265 246 233 225 219 215 213 212 217 210 189 170 160 147 164 160 148 152 145 138 142 145 171 164 156 183 200 213 152 21 5 2 15 51 58 66 85 105 109 109 114 112 117 125 127 117 110 94 89 86 84 80 78 75 71 68 68 61 59 60 64 62 64
329 322 328 342 340 327 321 318 315 312 311 314 310 316 312 304 290 314 313 311 300 278 229 238 249 235 217 213 197 188 189 186 190 165 152 156 153 158 141 160 134 140 152 170 192 185 192 210 211 220 211 56 8 27 29 58 86 90 96 102 106 111 116 116 103 102 98 104 108 101 95 92 89 84 79 75 67 61 60 60 58 54 52 39 36
333 334 340 335 326 325 329 324 320 322 320 316 311 292 292 284 293 301 299 303 302 299 282 246 235 245 261 229 178 194 187 188 178 183 174 171 166 178 166 165 166 171 176 178 184 188 210 206 222 222 192 190 91 83 74 68 87 102 96 99 103 101 94 89 96 99 104 101 100 100 97 91 83 80 72 60 60 54 54 50 46 43 40 34 21
317 304 321 328 333 325 321 318 313 315 314 311 313 308 285 286 292 291 295 299 301 292 290 290 278 260 209 179 194 189 205 211 183 174 160 158 164 168 161 165 177 176 186 194 177 190 201 207 224 224 196 175 158 141 135 128 136 118 118 115 103 95 96 94 87 88 88 89 81 82 85 86 85 77 76 71 63 41 42 30 23 22 27 17 15
297 301 306 307 310 307 305 308 303 304 310 307 305 300 301 303 298 295 295 302 294 278 266 269 270 262 227 196 198 196 189 195 210 176 183 190 169 142 172 185 182 184 182 205 200 201 204 206 221 203 170 173 182 184 179 166 162 132 118 106 97 111 113 123 109 99 99 93 96 86 71 43 54 46 46 32 30 38 44 26 10 7 1 355 351
307 301 299 291 287 284 281 287 288 296 302 305 303 301 301 300 298 299 302 298 286 281 270 262 258 251 250 231 207 195 199 197 200 241 253 207 201 190 208 248 241 189 190 191 199 214 214 214 201 178 174 191 194 207 215 189 169 160 149 141 141 138 139 121 130 129 110 88 80 71 63 57 49 60 47 42 21 17 5 4 360 347 343 334 334
292 288 287 286 281 281 284 282 282 284 289 292 296 299 302 301 302 299 297 284 273 271 273 266 256 234 236 220 219 198 176 167 173 222 294 301 226 202 200 215 275 265 223 236 193 210 215 197 194 210 187 177 196 215 161 166 166 157 143 136 137 138 138 132 130 116 106 94 81 85 75 79 67 63 54 37 13 356 344 341 333 320 310 311 302
298 296 292 283 283 283 284 286 290 291 284 285 285 288 297 303 309 306 296 277 263 258 254 253 251 240 226 219 217 224 275 116 232 191 203 252 294 317 236 237 240 271 269 262 246 240 229 197 191 209 225 247 93 130 154 161 153 144 138 134 134 133 129 130 131 111 65 96 109 94 85 74 71 73 63 17 340 334 321 312 308 308 298 288 284